DIRECTV 14

Last updated on Dec. 14, 2019, 4:30 a.m. UTC

1 40333U 14078B   19347.82423282 -.00000109  00000-0  00000-0 0  9999
2 40333   0.0173   2.3107 0000692 341.8389 295.5596  1.00269253 18291
UTC
Height (km)
Latitude
Longitude
Inclination
Orbital Period
UTC large
Height (km)
Speed (km/s)
/
Latitude / Longitude
Inclination (degrees)
Orbital Period (minutes)
Azimuth
Elevation
Range (km)
Doppler Factor
iOS Compass Heading
iOS Angle

Next 30 passes for location: Hong Kong

Rise time Rise Azimuth (degrees) Set time Set Azimuth (degrees) Duration Max altitude (degrees)

No matching passes for this satellites